Hourly Data Report for July 16, 2017

QUALICUM BEACH AIRPORT
BRITISH COLUMBIA

49°20'14.000" N
124°23'38.000" W
58.20 m
1026562
71766
VOQ

Download Data

Hourly Data (July 2017)
Hourly Data Report for July 16, 2017
TIME
LST
Temp Definition
°C
Dew Point Definition
°C
Rel Hum Definition
%
Precip. Amount Definition
mm

Wind Dir Definition
10's deg

Wind Spd Definition
km/h
Visibility Definition
km
Stn Press Definition
kPa
Hmdx Definition


Wind Chill Definition


Weather Definition


00:00 15.8 7.6 58 0.0 29 16   101.39     LegendNANA
01:00 15.8 7.2 57 0.0 28 9   101.41     LegendNANA
02:00 15.9 6.3 53 0.0 28 10   101.43     LegendNANA
03:00 15.3 6.5 56 0.0 28 8   101.46     LegendNANA
04:00 14.7 6.7 59 0.0 29 8   101.52     LegendNANA
05:00 15.3 7.2 59 0.0 29 9   101.58     LegendNANA
06:00 15.7 7.6 59 0.0 28 7   101.62     LegendNANA
07:00 16.0 8.5 61 0.0 31 11   101.68     LegendNANA
08:00 17.0 9.1 60 0.0 33 13   101.71     LegendNANA
09:00 17.7 10.7 64 0.0 35 10   101.72     LegendNANA
10:00 18.0 10.5 62 0.0 33 13   101.73     LegendNANA
11:00 18.7 9.0 53 0.0 35 10   101.73     LegendNANA
12:00 19.8 9.4 51 0.0 36 9   101.71     LegendNANA
13:00 20.6 9.3 48 0.0 34 9   101.70     LegendNANA
14:00 21.0 7.5 42 0.0 33 15   101.69     LegendNANA
15:00 20.5 7.2 42 0.0 34 11   101.66     LegendNANA
16:00 20.4 5.9 39 0.0 34 10   101.59     LegendNANA
17:00 20.1 7.0 42 0.0 34 10   101.54     LegendNANA
18:00 19.3 7.4 46 0.0 34 8   101.53     LegendNANA
19:00 19.2 8.4 50 0.0 31 9   101.53     LegendNANA
20:00 18.8 9.8 56 0.0 29 8   101.49     LegendNANA
21:00 17.3 10.6 65 0.0 27 4   101.49     LegendNANA
22:00 16.4 10.2 67 0.0 27 4   101.49     LegendNANA
23:00 14.3 10.0 75 0.0 27 5   101.48     LegendNANA

Notes on Data Quality.

Legend

  • E = Estimated
  • M = Missing
  • NA = Not Available*
  • [empty] = Indicates an unobserved value
Date modified: